Погода в Родичах

Россия / Кировская область     58°15′02″N   48°11′06″E
темп.,
°C
ветер,
м/с
пор.,
м/с
влажн.,
%
обл.,
%
осадки,
мм/ч
давл.,
гПа
погр.,
м
13 апреля, вт
вт1300:00+1ююв25100100 0.0 1038150
03:00+3юв2899100 0.0 1037259
06:00+3ююв39100100 0.0 1036293
09:00+4ююв39100100 0.0 1035318
12:00+5ю39100100 0.0 1033280
15:00+7ю39100100 0.0 1032323
18:00+8ююз4996100 0.0 1030330
21:00+7ю31099100 0.0 1030268
14 апреля, ср
ср1400:00+6ю379855 0.0 1029189
03:00+3ю379484 0.0 1029117
06:00+3ю3791100 0.0 1029130
09:00+9ю377593 0.0 1028229
12:00+14ю475944 0.0 1026537
15:00+15ю476111 0.0 1025770
18:00+11ю38815 0.0 1024155
21:00+8ю38887 0.0 1024124
15 апреля, чт
чт1500:00+7ююз35905 0.0 102283
03:00+6ююз24934 0.0 102267
06:00+7ююз25945 0.0 102196
09:00+12юз247722 0.0 1020350
12:00+16зюз23625 0.0 10191025
15:00+17зсз2353100 0.1 10181538
18:00+9ссв61182100 0.1 1020508
21:00+5ссв5118799 0.1 1023549
16 апреля, пт
пт1600:00+4ссв5118492 0.0 1024595
03:00+4св4108398 0.0 1025608
06:00+3св51172100 0.0 1026576
09:00+5всв585466 0.0 1027804
12:00+8св45435 0.0 10271207
15:00+10св45405 0.0 10271399
18:00+8ссв365215 0.0 1028157
21:00+4ссв276619 0.0 1029127
17 апреля, сб
сб1700:00+2св247454 0.0 102976
03:00+1ссв22765 0.0 103033
06:00+2с23720 0.0 1030102
09:00+7ссз24520 0.0 1030749
12:00+9ссз35435 0.0 10291638
15:00+11сз474174 0.0 10272027
18:00+9ссз385239 0.0 1026331
21:00+6ссз411685 0.0 1027400